Flag for Mauritania Weather past 2 weeks in Nouakchott, Mauritania

Now
75 °F

Scattered clouds.


Feels Like: 76 °F
Forecast: 77 / 84 °F
Wind: 5 mph from North

Location: Nouakchott Airport

Current Time: Jul 7, 2015 at 7:52:42 AM

Latest Report: Jul 7, 2015 at 7:30 AM


Visibility: 4 mi

Pressure: 29.89 "Hg

Humidity: 78%

Dew point: 68 °F

Location of NouakchottLocation

Historic Weather in Nouakchott — Graph

°F

Nouakchott temperature yesterday

Maximum temperature yesterday: 84 °F (at 3:00 PM)
Minimum temperature yesterday: 75 °F (at 7:00 AM)
Average temperature yesterday: 78 °F

Past Weeks' High & Low Weather Summary

 TemperatureHumidityPressure
High117 °F (Jul 4, 3:30 PM)89% (Jun 22, 7:00 AM)30.04 "Hg (Jun 22, 7:00 AM)
Low73 °F (Jun 26, 4:30 AM)7% (Jul 4, 2:00 PM)29.68 "Hg (Jul 4, 4:30 PM)
Average81 °F66%29.87 "Hg
* Reported Jun 22 7:00 AM — Jul 7 7:00 AM, Nouakchott, Weather by CustomWeather, © 2015

Note: Actual official high and low records may vary slightly from our data, if they occured in-between our weather recording intervals... More about our weather records

Advertising

Nouakchott weather history for previous 24 hours

 ConditionsComfort  
Time TempWeatherWind HumidityBarometerVisibility
7:00 AM
Tue, Jul 7
75 °FScattered clouds.5 mph78%29.89 "Hg4 mi
6:30 AM75 °FPassing clouds.7 mph78%29.89 "Hg4 mi
6:00 AM75 °FPassing clouds.7 mph78%29.86 "Hg4 mi
5:30 AM73 °FPassing clouds.7 mph83%29.86 "Hg4 mi
5:00 AM75 °FPassing clouds.7 mph78%29.86 "Hg4 mi
4:30 AM73 °FPassing clouds.9 mph83%29.86 "Hg4 mi
4:00 AM73 °FPassing clouds.9 mph83%29.83 "Hg4 mi
3:30 AM73 °FPassing clouds.8 mph83%29.83 "Hg4 mi
3:00 AM75 °FPassing clouds.9 mph78%29.83 "Hg4 mi
2:30 AM75 °FPassing clouds.7 mph78%29.83 "Hg4 mi
2:00 AM75 °FPassing clouds.7 mph78%29.86 "Hg4 mi
1:30 AM75 °FPassing clouds.8 mph78%29.86 "Hg4 mi
1:00 AM75 °FPassing clouds.8 mph78%29.86 "Hg4 mi
12:30 AM75 °FPassing clouds.8 mph78%29.86 "Hg4 mi
12:00 AM75 °FPassing clouds.8 mph78%29.89 "Hg4 mi
11:30 PM
Mon, Jul 6
75 °FPassing clouds.7 mph78%29.89 "Hg4 mi
11:00 PM75 °FPassing clouds.7 mph78%29.89 "Hg4 mi
10:30 PM75 °FPassing clouds.9 mph78%29.86 "Hg4 mi
10:00 PM75 °FPassing clouds.9 mph78%29.86 "Hg4 mi
9:30 PM75 °FPassing clouds.7 mph78%29.86 "Hg4 mi
9:00 PM75 °FPassing clouds.9 mph78%29.86 "Hg4 mi
8:30 PM75 °FPassing clouds.7 mph78%29.86 "Hg4 mi
8:00 PM77 °FPassing clouds.7 mph74%29.83 "Hg4 mi
7:30 PM77 °FScattered clouds.9 mph74%29.83 "Hg4 mi
7:00 PM77 °FScattered clouds.12 mph74%29.80 "Hg4 mi
6:30 PM79 °FScattered clouds.12 mph70%29.80 "Hg4 mi
6:00 PM79 °FScattered clouds.12 mph70%29.80 "Hg4 mi
5:30 PM81 °FScattered clouds.12 mph66%29.80 "Hg4 mi
5:00 PM81 °FScattered clouds.12 mph66%29.83 "Hg4 mi
4:30 PM82 °FScattered clouds.12 mph66%29.83 "Hg4 mi
4:00 PM82 °FScattered clouds.10 mph62%29.83 "Hg4 mi
3:30 PM82 °FScattered clouds.9 mph62%29.83 "Hg4 mi
3:00 PM84 °FScattered clouds.9 mph62%29.83 "Hg4 mi
2:30 PM82 °FScattered clouds.7 mph62%29.86 "Hg4 mi
2:00 PM82 °FScattered clouds.8 mph62%29.86 "Hg4 mi
1:30 PM82 °FScattered clouds.10 mph62%29.86 "Hg4 mi
1:00 PM82 °FScattered clouds.12 mph66%29.86 "Hg4 mi
12:30 PM81 °FPartly sunny.9 mph66%29.86 "Hg4 mi
12:00 PM81 °FPartly sunny.9 mph66%29.86 "Hg4 mi
11:30 AM81 °FPartly sunny.10 mph70%29.86 "Hg4 mi
11:00 AM81 °FPartly sunny.12 mph70%29.86 "Hg4 mi
10:30 AM81 °FPartly sunny.10 mph70%29.86 "Hg4 mi
10:00 AM79 °FPartly sunny.12 mph74%29.83 "Hg4 mi
9:30 AM79 °FPartly sunny.12 mph74%29.83 "Hg4 mi
9:00 AM77 °FPartly sunny.9 mph74%29.83 "Hg4 mi
8:30 AM77 °FPartly sunny.10 mph79%29.83 "Hg4 mi
8:00 AM77 °FPartly sunny.9 mph74%29.83 "Hg4 mi
7:30 AM77 °FPartly sunny.12 mph79%29.83 "Hg4 mi
7:00 AM75 °FPartly sunny.9 mph78%29.83 "Hg4 mi
Weather by CustomWeather, © 2015

See weather overviewHow to use our weather pages